Zurück zum Katalog

GRUS-3F

AktivWissenschaftSSO
NORAD 69894·PAYLOAD·🇦🇺 Australia

Gestartet Jul 7, 2026 von Vandenberg Space Force Base

Loading…

Nächste Überflüge (nächste 24 Stunden)

TLE

AktuellSource: Space-Track

Epoche: Sep 14, 2026, 12:08 UTC

1 69894U 26156AB  26257.50623564  .00000567  00000-0  61984-4 0  9999
2 69894  97.7471 156.7963 0004175 282.8832  77.1920 14.91624533 10319

Verfolge GRUS-3F in Echtzeit mit AllMySat

Download on the App Store